FW5449 Weather Reports


time (UTC)temp
F
wind
direction
speed
knots
gust
knots
rain 1hr
in
rain 24hr
in
rain mn
in
humidity
%
barometer
mb
20260509062024 53 329 0.0 0.0 0.00 0.00 0.00 85 1021.4
20260509061451 53 329 0.0 0.0 0.00 0.00 0.00 86 1021.4
20260509060937 53 329 0.0 0.0 0.00 0.00 0.00 85 1021.4
20260509060425 53 329 0.0 0.0 0.00 0.00 0.00 85 1021.4
20260509055846 54 329 0.0 0.0 0.00 0.00 0.00 85 1021.3
20260509055342 54 329 0.0 0.0 0.00 0.00 0.00 85 1021.3
20260509054825 54 329 0.0 0.0 0.00 0.00 0.00 85 1021.3
20260509054255 55 329 0.0 0.0 0.00 0.00 0.00 85 1021.4
20260509053740 55 329 0.0 0.0 0.00 0.00 0.00 84 1021.2
20260509053229 55 329 0.0 0.0 0.00 0.00 0.00 84 1021.3
20260509052726 55 329 0.0 0.0 0.00 0.00 0.00 85 1021.4
20260509052225 55 329 0.0 0.0 0.00 0.00 0.00 85 1021.3
20260509051724 55 329 0.0 0.0 0.00 0.00 0.00 86 1021.3
20260509051152 55 329 0.0 0.0 0.00 0.00 0.00 85 1021.2
20260509050638 56 329 0.0 0.0 0.00 0.00 0.00 81 1021.2
20260509050128 56 329 0.0 0.0 0.00 0.00 0.00 80 1021.2
20260509045604 56 329 0.0 0.0 0.00 0.00 0.00 81 1021.1
20260509045535 57 329 0.0 0.0 0.00 0.00 0.00 81 1021.0
20260509044811 57 329 0.0 0.0 0.00 0.00 0.00 81 1021.0
20260509044045 57 329 0.0 0.0 0.00 0.00 0.00 81 1021.0
20260509043523 57 329 0.0 0.9 0.00 0.00 0.00 80 1020.9
20260509043021 58 329 0.0 0.9 0.00 0.00 0.00 78 1021.0
20260509042520 58 329 0.0 0.9 0.00 0.00 0.00 77 1021.0
20260509042018 58 329 0.0 0.0 0.00 0.00 0.00 76 1020.9
20260509041510 59 329 0.0 0.9 0.00 0.00 0.00 75 1020.8
20260509041004 59 329 0.0 0.9 0.00 0.00 0.00 74 1020.7
20260509040719 60 329 0.9 1.7 0.00 0.00 0.00 73 1020.7
20260509040001 60 329 0.9 1.7 0.00 0.00 0.00 72 1020.6
20260509035500 60 329 0.9 2.6 0.00 0.00 0.00 71 1020.7
20260509034955 61 329 1.7 3.5 0.00 0.00 0.00 69 1020.6
20260509034456 61 331 1.7 3.5 0.00 0.00 0.00 69 1020.5
20260509033955 61 314 1.7 3.5 0.00 0.00 0.00 69 1020.4
20260509033458 62 341 1.7 3.5 0.00 0.00 0.00 67 1020.4
20260509033216 62 358 1.7 5.2 0.00 0.00 0.00 67 1020.2
20260509032453 63 349 1.7 5.2 0.00 0.00 0.00 66 1020.2
20260509031952 63 4 1.7 5.2 0.00 0.00 0.00 65 1020.1
20260509031707 63 346 2.6 5.2 0.00 0.00 0.00 65 1020.1
20260509031203 64 346 2.6 5.2 0.00 0.00 0.00 65 1020.1
20260509030706 64 358 2.6 5.2 0.00 0.00 0.00 65 1020.0
20260509025940 64 6 2.6 5.2 0.00 0.00 0.00 64 1020.0
20260509025702 64 348 2.6 5.2 0.00 0.00 0.00 64 1020.1
20260509024928 65 28 2.6 5.2 0.00 0.00 0.00 64 1020.0
20260509024423 65 43 2.6 5.2 0.00 0.00 0.00 63 1020.1
20260509023919 65 357 2.6 7.8 0.00 0.00 0.00 62 1020.1
20260509023420 65 32 3.5 7.8 0.00 0.00 0.00 62 1020.0
20260509022920 66 13 3.5 8.7 0.00 0.00 0.00 62 1020.0
20260509022421 66 18 3.5 8.7 0.00 0.00 0.00 62 1020.0
20260509021918 66 40 4.3 7.8 0.00 0.00 0.00 61 1020.0
20260509021414 67 17 4.3 8.7 0.00 0.00 0.00 60 1020.0
20260509020904 67 331 5.2 8.7 0.00 0.00 0.00 60 1019.9
20260509020406 67 27 4.3 8.7 0.00 0.00 0.00 59 1020.0
20260509020125 67 16 3.5 7.8 0.00 0.00 0.00 59 1019.9
20260509015406 67 58 3.5 7.8 0.00 0.00 0.00 58 1019.9
20260509014904 67 352 4.3 7.8 0.00 0.00 0.00 58 1019.9
20260509014403 67 42 5.2 8.7 0.00 0.00 0.00 58 1019.9
20260509014125 68 11 5.2 8.7 0.00 0.00 0.00 58 1019.9
20260509013401 68 0 4.3 9.6 0.00 0.00 0.00 56 1019.9
20260509013124 68 10 4.3 9.6 0.00 0.00 0.00 57 1019.9
20260509012358 68 44 4.3 8.7 0.00 0.00 0.00 57 1019.9
20260509011859 69 19 4.3 8.7 0.00 0.00 0.00 57 1020.0
20260509011357 69 58 5.2 9.6 0.00 0.00 0.00 56 1020.0
20260509010856 69 28 5.2 9.6 0.00 0.00 0.00 55 1020.0
20260509010357 69 30 5.2 10.4 0.00 0.00 0.00 55 1020.0
20260509005856 69 5 5.2 10.4 0.00 0.00 0.00 54 1020.2
20260509005354 69 29 4.3 7.8 0.00 0.00 0.00 55 1020.2
20260509004852 69 15 4.3 10.4 0.00 0.00 0.00 57 1020.1
20260509004352 69 17 5.2 10.4 0.00 0.00 0.00 55 1020.3
20260509003851 69 29 6.1 11.3 0.00 0.00 0.00 56 1020.3
20260509003350 70 27 5.2 11.3 0.00 0.00 0.00 54 1020.2
20260509002850 71 13 5.2 8.7 0.00 0.00 0.00 54 1020.2
20260509002349 71 0 5.2 8.7 0.00 0.00 0.00 53 1020.3
20260509001849 71 352 5.2 9.6 0.00 0.00 0.00 53 1020.2
20260509001348 71 25 5.2 9.6 0.00 0.00 0.00 51 1020.2
20260509000846 71 351 5.2 9.6 0.00 0.00 0.00 52 1020.2
20260509000344 71 352 5.2 9.6 0.00 0.00 0.00 52 1020.2
20260508235840 71 17 4.3 12.2 0.00 0.00 0.00 51 1020.1
20260508235341 71 316 4.3 12.2 0.00 0.00 0.00 50 1020.2
20260508235108 71 352 4.3 8.7 0.00 0.00 0.00 53 1020.1
20260508234557 71 19 5.2 8.7 0.00 0.00 0.00 51 1020.2
20260508234059 71 353 5.2 7.8 0.00 0.00 0.00 52 1020.3
20260508233337 72 39 5.2 7.8 0.00 0.00 0.00 50 1020.3
20260508232836 71 322 4.3 10.4 0.00 0.00 0.00 50 1020.3
20260508232334 71 346 4.3 10.4 0.00 0.00 0.00 53 1020.3
20260508232052 71 339 4.3 9.6 0.00 0.00 0.00 52 1020.3
20260508231332 71 343 4.3 9.6 0.00 0.00 0.00 50 1020.3
20260508230831 72 337 4.3 8.7 0.00 0.00 0.00 52 1020.5
20260508230328 73 13 2.6 7.8 0.00 0.00 0.00 49 1020.4
20260508225828 73 323 3.5 8.7 0.00 0.00 0.00 50 1020.3
20260508225324 73 15 4.3 8.7 0.00 0.00 0.00 49 1020.4
20260508225044 72 342 3.5 7.8 0.00 0.00 0.00 52 1020.4
20260508224319 72 347 2.6 7.8 0.00 0.00 0.00 48 1020.5
20260508223817 71 33 1.7 7.0 0.00 0.00 0.00 55 1020.5
20260508223316 70 294 2.6 7.0 0.00 0.00 0.00 52 1020.5
20260508223300 71 246 3.5 7.0 0.00 0.00 0.00 50 1020.6
20260508222314 71 289 2.6 7.8 0.00 0.00 0.00 51 1020.5
20260508221812 71 292 3.5 8.7 0.00 0.00 0.00 49 1020.6
20260508221312 71 334 3.5 8.7 0.00 0.00 0.00 50 1020.7
20260508220813 70 36 3.5 7.8 0.00 0.00 0.00 52 1020.8
20260508220311 70 285 2.6 7.8 0.00 0.00 0.00 53 1020.8
20260508215812 70 318 2.6 7.0 0.00 0.00 0.00 53 1020.9
20260508215309 70 238 2.6 7.0 0.00 0.00 0.00 52 1021.0
20260508214806 69 316 2.6 6.1 0.00 0.00 0.00 53 1021.1
20260508214307 70 290 3.5 7.8 0.00 0.00 0.00 54 1021.1
20260508213807 71 354 3.5 7.8 0.00 0.00 0.00 52 1021.0
20260508213306 70 282 2.6 6.1 0.00 0.00 0.00 52 1021.2
20260508212806 69 302 2.6 7.0 0.00 0.00 0.00 55 1021.2
20260508212306 69 344 3.5 7.8 0.00 0.00 0.00 54 1021.3
20260508211804 69 308 3.5 8.7 0.00 0.00 0.00 52 1021.4
20260508211304 69 291 3.5 8.7 0.00 0.00 0.00 56 1021.3
20260508210802 69 325 3.5 7.0 0.00 0.00 0.00 53 1021.4
20260508210301 68 234 3.5 7.0 0.00 0.00 0.00 51 1021.4
20260508205801 68 294 2.6 7.0 0.00 0.00 0.00 54 1021.3
20260508205306 67 332 2.6 5.2 0.00 0.00 0.00 60 1021.3
20260508204801 67 0 2.6 5.2 0.00 0.00 0.00 52 1021.4
20260508204301 68 300 3.5 7.8 0.00 0.00 0.00 52 1021.4
20260508203801 68 231 3.5 7.8 0.00 0.00 0.00 61 1021.4
20260508203301 67 275 4.3 8.7 0.00 0.00 0.00 54 1021.6
20260508202757 67 275 4.3 9.6 0.00 0.00 0.00 57 1021.5
20260508202256 67 293 4.3 9.6 0.00 0.00 0.00 57 1021.4
20260508201755 65 242 3.5 9.6 0.00 0.00 0.00 57 1021.5
20260508201254 66 44 2.6 9.6 0.00 0.00 0.00 59 1021.6
20260508201019 65 275 3.5 7.0 0.00 0.00 0.00 61 1021.6
20260508200253 65 2 3.5 8.7 0.00 0.00 0.00 58 1021.7
20260508195754 65 200 3.5 8.7 0.00 0.00 0.00 61 1021.8
20260508195258 65 54 3.5 7.8 0.00 0.00 0.00 64 1021.8
20260508194751 65 296 2.6 7.0 0.00 0.00 0.00 61 1021.7
20260508194510 64 279 2.6 5.2 0.00 0.00 0.00 60 1021.7
20260508193749 64 10 2.6 7.0 0.00 0.00 0.00 62 1021.8
20260508193247 65 275 3.5 7.0 0.00 0.00 0.00 58 1021.8
20260508192748 65 339 3.5 7.8 0.00 0.00 0.00 61 1022.0
20260508192248 65 231 3.5 7.8 0.00 0.00 0.00 65 1021.7
20260508191747 63 39 3.5 8.7 0.00 0.00 0.00 60 1021.9
20260508191245 63 241 3.5 9.6 0.00 0.00 0.00 59 1021.9
20260508190749 63 17 2.6 9.6 0.00 0.00 0.00 63 1021.9
20260508190244 63 319 3.5 7.0 0.00 0.00 0.00 60 1021.9
20260508185743 64 356 4.3 7.8 0.00 0.00 0.00 59 1021.9
20260508185244 62 260 3.5 7.8 0.00 0.00 0.00 60 1021.8
20260508184744 61 265 3.5 9.6 0.00 0.00 0.00 60 1021.7
20260508184242 62 239 4.3 9.6 0.00 0.00 0.00 62 1021.8
20260508183731 61 235 3.5 9.6 0.00 0.00 0.00 63 1021.8
20260508183229 60 280 2.6 7.0 0.00 0.00 0.00 61 1021.9
20260508182727 62 275 3.5 8.7 0.00 0.00 0.00 66 1021.9
20260508182226 61 254 3.5 8.7 0.00 0.00 0.00 62 1022.0
20260508181718 60 279 4.3 9.6 0.00 0.00 0.00 65 1022.0
20260508181218 60 292 5.2 9.6 0.00 0.00 0.00 61 1022.1
20260508180717 60 295 4.3 10.4 0.00 0.00 0.00 68 1022.0
20260508180218 62 295 3.5 10.4 0.00 0.00 0.00 61 1022.1
20260508175717 60 259 3.5 8.7 0.00 0.00 0.00 68 1022.0
20260508175436 58 333 4.3 8.7 0.00 0.00 0.00 66 1022.0
20260508174715 58 270 4.3 9.6 0.00 0.00 0.00 67 1022.0
20260508174218 58 319 4.3 9.6 0.00 0.00 0.00 69 1022.0
20260508173931 57 292 4.3 9.6 0.00 0.00 0.00 69 1021.9
20260508173213 57 283 3.5 9.6 0.00 0.00 0.00 68 1021.9
20260508172711 58 254 3.5 7.0 0.00 0.00 0.00 71 1021.8
20260508172211 55 132 4.3 7.8 0.00 0.00 0.00 71 1021.8
20260508171712 55 255 5.2 9.6 0.00 0.00 0.00 68 1021.8
20260508171212 56 243 3.5 9.6 0.00 0.00 0.00 68 1021.8
20260508170711 56 233 2.6 8.7 0.00 0.00 0.00 70 1021.6
20260508170212 56 203 2.6 8.7 0.00 0.00 0.00 72 1021.6
20260508165712 55 265 2.6 5.2 0.00 0.00 0.00 75 1021.6
20260508165437 53 238 2.6 8.7 0.00 0.00 0.00 74 1021.6
20260508164710 53 164 3.5 8.7 0.00 0.00 0.00 74 1021.7
20260508164208 53 208 2.6 6.1 0.00 0.00 0.00 74 1021.6
20260508163710 53 181 3.5 6.1 0.00 0.00 0.00 75 1021.5
20260508163208 52 232 2.6 5.2 0.00 0.00 0.00 76 1021.5
20260508162935 52 229 2.6 5.2 0.00 0.00 0.00 77 1021.6
20260508162210 52 198 3.5 8.7 0.00 0.00 0.00 75 1021.3
20260508161703 53 171 3.5 8.7 0.00 0.00 0.00 75 1021.3
20260508161431 53 162 2.6 7.8 0.00 0.00 0.00 77 1021.3
20260508160704 53 204 2.6 5.2 0.00 0.00 0.00 75 1021.2
20260508160203 52 165 2.6 6.1 0.00 0.00 0.00 76 1021.3
20260508155927 52 163 3.5 6.1 0.00 0.00 0.00 76 1021.1
20260508155414 52 187 3.5 6.1 0.00 0.00 0.00 77 1021.3
20260508154701 52 175 3.5 7.0 0.00 0.00 0.00 75 1021.3
20260508154159 52 189 4.3 7.8 0.00 0.00 0.00 76 1021.4
20260508153650 52 235 4.3 7.8 0.00 0.00 0.00 76 1021.4
20260508153151 52 167 3.5 7.8 0.00 0.00 0.00 76 1021.0
20260508152649 51 136 3.5 7.0 0.00 0.00 0.00 75 1021.1
20260508152404 52 130 3.5 7.0 0.00 0.00 0.00 77 1021.2
20260508151645 51 104 3.5 7.0 0.00 0.00 0.00 76 1021.3
20260508151355 51 172 3.5 8.7 0.00 0.00 0.00 78 1021.4
20260508150621 51 160 3.5 8.7 0.00 0.00 0.00 76 1021.4
20260508150058 51 129 2.6 5.2 0.00 0.00 0.00 78 1021.4
20260508145550 51 166 3.5 5.2 0.00 0.00 0.00 78 1021.3
20260508145048 51 148 2.6 4.3 0.00 0.00 0.00 79 1021.2
20260508144550 51 131 2.6 5.2 0.00 0.00 0.00 80 1021.4
20260508144046 51 172 3.5 6.1 0.00 0.00 0.00 79 1021.4
20260508143544 51 147 2.6 6.1 0.00 0.00 0.00 80 1021.2
20260508143045 51 160 2.6 4.3 0.00 0.00 0.00 81 1021.4
20260508142544 51 156 2.6 5.2 0.00 0.00 0.00 80 1021.3
20260508142042 50 150 2.6 5.2 0.00 0.00 0.00 81 1021.3
20260508141538 50 171 2.6 6.1 0.00 0.00 0.00 81 1021.3
20260508141030 50 191 2.6 6.1 0.00 0.00 0.00 82 1021.3
20260508140753 50 182 2.6 3.5 0.00 0.00 0.00 83 1021.2
20260508140029 50 195 2.6 5.2 0.00 0.00 0.00 83 1021.1
20260508135529 50 196 2.6 6.1 0.00 0.00 0.00 84 1021.1
20260508135027 49 176 3.5 6.1 0.00 0.00 0.00 85 1021.3
20260508134524 49 185 3.5 6.1 0.00 0.00 0.00 84 1021.1
20260508134026 49 183 2.6 5.2 0.00 0.00 0.00 85 1021.0
20260508133516 49 196 3.5 6.1 0.00 0.00 0.00 85 1021.0
20260508133017 49 191 3.5 6.1 0.00 0.00 0.00 85 1020.8
20260508132513 49 197 3.5 6.1 0.00 0.00 0.00 85 1020.9
20260508132008 48 205 3.5 6.1 0.00 0.00 0.00 85 1020.7
20260508131501 48 148 2.6 6.1 0.00 0.00 0.00 86 1020.9
20260508131000 48 211 2.6 6.1 0.00 0.00 0.00 86 1020.8
20260508130500 48 191 2.6 6.1 0.00 0.00 0.00 86 1020.8
20260508125958 48 202 2.6 6.1 0.00 0.00 0.00 87 1020.7
20260508125453 47 189 2.6 5.2 0.00 0.00 0.00 87 1020.6
20260508124951 47 179 2.6 5.2 0.00 0.00 0.00 87 1020.6
20260508124453 47 202 2.6 7.0 0.00 0.00 0.00 87 1020.5
20260508124220 47 179 2.6 7.0 0.00 0.00 0.00 88 1020.4
20260508123451 46 210 3.5 7.0 0.00 0.00 0.00 88 1020.3
20260508122950 46 153 3.5 7.0 0.00 0.00 0.00 88 1020.3
20260508122451 46 189 2.6 6.1 0.00 0.00 0.00 89 1020.1
20260508121947 46 158 2.6 6.1 0.00 0.00 0.00 89 1020.1
20260508121448 46 197 2.6 5.2 0.00 0.00 0.00 89 1020.1
20260508120948 46 144 2.6 5.2 0.00 0.00 0.00 88 1020.1
20260508120446 46 169 2.6 5.2 0.00 0.00 0.00 89 1020.0
20260508115945 46 204 2.6 6.1 0.00 0.00 0.00 89 1019.9
20260508115444 46 169 2.6 6.1 0.00 0.00 0.00 90 1020.1
20260508114945 46 137 2.6 6.1 0.00 0.00 0.00 91 1020.0
20260508114442 46 177 2.6 6.1 0.00 0.00 0.00 91 1020.0
20260508113940 47 179 3.5 7.0 0.00 0.00 0.00 92 1019.9
20260508113441 47 181 3.5 7.0 0.00 0.00 0.00 91 1019.9
20260508113205 46 177 3.5 7.0 0.00 0.00 0.00 90 1019.9
20260508112442 47 187 3.5 7.8 0.00 0.00 0.00 88 1019.9
20260508111941 47 176 3.5 7.8 0.00 0.00 0.00 87 1019.9
20260508111438 46 195 3.5 7.8 0.00 0.00 0.00 88 1019.8
20260508111205 46 202 3.5 6.1 0.00 0.00 0.00 88 1019.7
20260508110438 46 175 3.5 6.1 0.00 0.00 0.00 88 1019.6
20260508105937 46 210 3.5 7.0 0.00 0.00 0.00 88 1019.4
20260508105436 46 219 3.5 7.0 0.00 0.00 0.00 87 1019.3
20260508104937 46 240 3.5 6.1 0.00 0.00 0.00 87 1019.3
20260508104438 46 203 3.5 6.1 0.00 0.00 0.00 87 1019.3
20260508103938 46 214 3.5 7.8 0.00 0.00 0.00 87 1019.2
20260508103915 46 190 3.5 7.8 0.00 0.00 0.00 87 1019.2
20260508102932 46 215 2.6 6.1 0.00 0.00 0.00 87 1019.1
20260508102651 46 169 2.6 6.1 0.00 0.00 0.00 88 1019.2
20260508101933 46 208 1.7 5.2 0.00 0.00 0.00 87 1019.1
20260508101423 46 189 2.6 5.2 0.00 0.00 0.00 87 1019.0
20260508101139 47 225 3.5 7.8 0.00 0.00 0.00 87 1019.0
20260508100418 47 225 3.5 7.8 0.00 0.00 0.00 87 1018.8
20260508095902 47 189 3.5 7.0 0.00 0.00 0.00 87 1018.7
20260508095401 47 223 4.3 8.7 0.00 0.00 0.00 87 1018.6
20260508094857 47 218 4.3 8.7 0.00 0.00 0.00 87 1018.5
20260508094359 47 233 3.5 7.0 0.00 0.00 0.00 87 1018.4
20260508094113 47 212 3.5 6.1 0.00 0.00 0.00 86 1018.3
20260508093358 48 213 3.5 6.1 0.00 0.00 0.00 86 1018.3
20260508092859 48 233 3.5 9.6 0.00 0.00 0.00 86 1018.3
20260508092356 48 192 3.5 9.6 0.00 0.00 0.00 85 1018.3
20260508091854 49 196 3.5 8.7 0.00 0.00 0.00 85 1018.3
20260508091356 49 188 4.3 8.7 0.00 0.00 0.00 85 1018.2
20260508090854 49 217 4.3 9.6 0.00 0.00 0.00 84 1018.3
20260508090353 49 181 5.2 9.6 0.00 0.00 0.00 84 1018.2
20260508085851 50 226 5.2 9.6 0.00 0.00 0.00 83 1018.3
20260508085616 50 205 6.1 9.6 0.00 0.00 0.00 83 1018.1
20260508085122 50 233 6.1 9.6 0.00 0.00 0.00 83 1018.2
20260508084350 50 227 6.1 12.2 0.00 0.00 0.00 83 1018.0
20260508083848 50 190 5.2 12.2 0.00 0.00 0.00 84 1018.0
20260508083834 50 201 5.2 9.6 0.00 0.00 0.00 83 1018.1
20260508082846 51 229 5.2 9.6 0.00 0.00 0.00 83 1017.9
20260508082348 51 215 5.2 9.6 0.00 0.00 0.00 83 1017.8
20260508082112 51 189 5.2 8.7 0.00 0.00 0.00 84 1017.8
20260508081347 51 186 4.3 8.7 0.00 0.00 0.00 84 1017.8
20260508080847 51 181 3.5 7.8 0.00 0.00 0.00 83 1017.8
20260508080346 51 194 3.5 6.1 0.00 0.00 0.00 83 1017.7
20260508075845 51 199 3.5 7.8 0.00 0.00 0.00 83 1017.8
20260508075348 51 165 3.5 7.8 0.00 0.00 0.00 83 1017.7
20260508074843 51 196 3.5 7.0 0.00 0.00 0.00 82 1017.7
20260508074350 52 233 3.5 7.0 0.00 0.00 0.00 82 1017.7
20260508073843 52 242 4.3 8.7 0.00 0.00 0.00 81 1017.7
20260508073336 52 227 5.2 8.7 0.00 0.00 0.00 82 1017.7
20260508072833 52 236 4.3 8.7 0.00 0.00 0.00 81 1017.6
20260508072329 53 210 5.2 7.8 0.00 0.00 0.00 82 1017.6
20260508072053 53 211 5.2 7.8 0.00 0.00 0.00 81 1017.5
20260508071317 53 231 4.3 7.8 0.00 0.00 0.00 81 1017.4
20260508070817 53 215 4.3 7.8 0.00 0.00 0.00 81 1017.5
20260508070317 53 206 5.2 9.6 0.00 0.00 0.00 80 1017.5
20260508065820 54 210 5.2 9.6 0.00 0.00 0.00 80 1017.5
20260508065319 54 200 5.2 7.8 0.00 0.00 0.00 80 1017.3
20260508064818 54 194 4.3 8.7 0.00 0.00 0.00 80 1017.4
20260508064808 54 210 3.5 8.7 0.00 0.00 0.00 80 1017.3
20260508063813 54 194 5.2 9.6 0.00 0.00 0.00 79 1017.4
20260508063314 54 201 5.2 9.6 0.00 0.00 0.00 79 1017.3
20260508062813 55 182 4.3 9.6 0.00 0.00 0.00 78 1017.4
20260508062542 55 214 4.3 7.8 0.00 0.00 0.00 78 1017.2